Wind_Speed
45 47 48 50 51 51 47 44 39 30 23 18 18 19 20 19 21 23 23 22 22 21 21 20 19 17 16 16 16 16 17 17 16 14 13 12 11 11 11 13 14 17 19
42 43 45 45 44 45 42 36 32 27 23 19 20 21 21 20 21 22 22 22 21 21 21 21 19 18 18 17 17 17 17 17 17 16 15 13 12 11 12 12 13 15 18
37 39 40 39 40 39 37 35 33 29 26 24 22 21 21 20 19 20 20 20 19 19 19 20 19 19 19 19 18 19 19 19 19 17 16 15 15 14 14 14 14 15 17
35 36 37 37 37 37 36 34 33 30 29 27 24 24 21 19 18 18 18 19 19 19 20 20 20 20 20 20 20 21 21 21 21 20 19 17 16 16 18 18 16 16 18
33 35 36 37 38 39 38 36 35 33 32 30 29 27 25 24 23 22 21 21 21 21 21 22 22 22 21 21 22 23 23 23 23 23 22 20 19 17 17 20 20 18 18
32 35 37 39 42 42 42 41 40 38 36 35 34 33 32 31 30 29 27 27 26 25 25 24 24 24 24 24 24 24 25 25 26 26 25 24 23 21 19 19 20 21 20
33 36 39 42 44 45 46 46 45 44 43 42 41 39 38 38 38 37 36 35 34 32 30 29 28 28 28 28 27 27 27 27 28 28 27 27 26 24 23 21 21 21 22
38 41 44 46 47 47 48 48 48 48 47 47 46 45 45 44 44 44 44 44 43 41 39 36 34 33 33 33 32 31 30 30 30 30 30 29 28 27 26 24 23 22 23
45 48 50 53 53 53 53 52 51 50 50 50 51 51 51 51 50 50 49 49 49 49 48 46 43 41 40 39 38 36 35 34 33 33 32 31 30 29 28 27 25 23 22
49 52 55 57 58 59 60 60 59 57 56 55 55 55 56 56 56 55 55 54 54 54 55 55 53 51 49 46 44 42 41 38 36 35 34 33 32 31 30 28 26 24 22
50 53 56 58 61 64 66 67 68 67 66 65 63 62 61 61 61 61 60 59 59 58 59 59 59 58 57 54 51 48 47 44 42 39 37 35 33 32 31 29 27 25 23
55 57 59 61 64 67 70 72 73 74 73 71 69 67 66 65 65 65 65 65 64 63 63 63 63 63 62 60 58 54 52 50 47 44 41 38 36 34 32 30 28 26 24
59 61 64 66 68 70 71 70 70 69 68 66 63 60 57 56 57 58 61 64 67 68 69 68 67 66 65 63 61 59 57 55 52 49 46 42 39 36 34 31 29 26 24
61 64 66 68 67 65 63 62 62 61 59 57 54 50 47 44 42 43 45 50 56 63 68 71 72 71 70 67 65 62 60 58 55 53 50 46 43 39 36 33 30 27 24
63 65 65 62 59 58 58 57 57 56 54 52 50 46 43 41 38 36 36 37 40 45 52 60 67 72 74 73 70 66 62 59 57 54 52 49 46 42 38 35 31 29 26
61 60 58 55 55 55 55 56 56 56 55 53 50 48 45 43 41 38 37 35 35 35 37 40 47 56 65 72 74 72 68 62 58 55 53 51 48 45 41 37 34 31 27
57 54 53 53 55 56 57 58 58 58 57 56 54 52 50 48 45 43 40 38 36 34 34 33 34 37 45 55 66 72 72 68 62 57 54 52 49 47 43 39 36 32 29
52 52 52 54 56 58 60 60 60 60 59 58 56 54 53 51 49 47 44 42 40 37 36 35 34 34 34 38 46 59 68 70 67 61 56 53 51 48 45 41 38 34 30
52 52 54 56 58 60 61 61 61 60 59 57 55 53 52 52 51 48 46 44 43 41 39 37 36 33 32 32 34 40 53 63 66 64 59 55 52 50 47 44 40 37 32
51 52 55 57 59 61 62 61 58 56 54 52 50 48 48 50 50 48 46 45 43 41 40 39 37 35 33 30 29 30 38 50 59 62 61 57 53 51 48 46 43 39 34
51 53 56 58 60 61 61 58 55 52 48 45 43 42 43 45 46 46 44 43 42 41 39 38 37 35 33 31 28 26 29 39 50 57 58 56 53 50 48 47 45 41 36
51 54 57 58 59 60 59 55 51 48 44 40 37 36 37 39 40 41 40 39 39 39 38 36 35 34 33 31 28 25 25 31 41 51 53 52 51 49 48 47 46 43 38
52 55 58 58 59 59 57 52 49 45 41 36 32 29 29 30 32 34 35 35 35 34 34 34 33 33 32 31 28 25 23 25 34 45 51 51 49 49 48 47 45 42 38
52 55 57 58 58 57 54 51 48 43 39 33 28 24 22 22 24 26 28 29 30 30 30 31 31 32 31 30 28 26 23 23 31 41 49 48 47 46 47 47 45 42 38
51 55 57 58 58 56 53 49 46 43 38 33 27 21 18 15 16 18 20 23 24 26 28 29 30 31 31 30 28 26 24 24 29 38 47 48 47 46 46 46 44 41 38
50 54 56 58 58 55 51 47 45 43 39 34 28 20 15 10 9 10 14 17 19 22 24 26 28 29 30 30 29 28 26 25 28 35 43 48 47 47 46 45 43 40 37
Wind_Direction
283 287 290 292 295 301 305 304 305 297 281 267 267 276 281 286 288 288 287 286 286 284 284 281 276 271 265 258 251 249 247 243 241 243 249 258 269 278 283 284 282 276 272
282 285 289 295 300 304 309 311 315 313 304 301 302 295 288 285 284 283 282 280 278 276 276 275 270 264 260 255 251 250 250 246 243 246 252 260 271 280 288 293 292 285 276
283 287 292 298 303 305 309 315 318 322 317 314 316 311 296 284 280 280 279 275 271 269 267 268 265 261 257 253 251 251 253 251 246 247 255 264 275 286 292 297 298 296 286
284 289 292 296 300 305 310 314 316 317 316 313 312 313 301 287 281 279 275 272 268 264 260 258 256 255 255 253 253 253 255 255 254 254 257 264 271 281 291 297 300 300 293
283 288 292 296 301 306 309 312 313 313 311 309 305 304 298 291 285 278 273 268 263 259 256 254 251 250 251 252 253 254 256 258 259 261 264 267 271 278 285 292 298 302 298
287 289 293 298 302 305 308 309 309 308 306 302 299 295 290 287 283 279 274 268 263 259 255 253 253 251 251 251 252 253 255 257 260 262 265 269 274 279 283 286 293 299 300
297 295 297 300 303 305 306 306 306 304 302 299 295 290 285 281 277 274 272 269 266 261 256 252 253 254 253 252 252 253 254 255 257 260 264 268 273 279 283 285 289 294 297
304 302 302 302 302 303 303 302 301 299 297 295 291 288 284 279 275 271 268 266 264 262 259 254 252 252 253 253 253 253 253 254 255 258 262 266 271 275 281 283 286 290 293
309 308 307 306 306 305 303 300 298 295 293 290 287 284 280 277 274 270 267 264 261 259 258 257 253 251 250 252 253 253 253 253 254 256 260 263 267 272 277 280 283 286 290
311 309 309 308 307 306 304 302 299 296 293 290 286 282 278 275 272 269 266 263 260 258 256 256 254 252 251 250 250 252 253 254 254 256 258 261 264 267 272 277 279 283 287
311 310 309 308 307 306 305 303 301 299 296 292 288 284 279 274 270 267 264 262 259 257 255 254 254 253 252 251 250 250 252 254 255 256 258 259 262 264 268 271 275 279 284
314 313 312 310 308 307 305 304 303 301 299 297 293 289 284 278 272 267 262 259 257 256 254 253 253 253 252 251 250 248 249 251 253 255 257 258 259 261 263 266 269 274 280
316 315 313 311 309 307 306 304 303 303 302 301 299 296 291 285 277 270 263 258 254 253 252 251 251 251 251 251 249 248 247 248 250 251 253 255 256 258 258 260 263 268 275
316 315 312 310 308 307 305 304 303 303 302 301 300 298 296 291 284 276 268 261 255 252 250 249 248 248 249 249 248 247 246 246 246 247 249 251 252 254 254 254 257 261 269
316 313 311 309 308 307 306 304 302 300 299 297 295 294 293 291 287 281 276 271 263 257 253 250 248 247 246 246 246 246 244 244 243 243 244 246 247 248 249 250 251 254 262
316 315 313 312 310 309 307 305 302 299 296 293 289 287 285 283 281 278 275 272 268 264 260 257 253 250 247 245 244 243 242 241 240 240 240 241 243 244 245 246 246 249 256
320 318 317 315 313 311 308 305 301 297 293 288 285 281 278 277 276 275 273 270 266 263 261 261 259 257 253 248 244 240 239 237 236 236 236 237 238 239 240 242 242 245 250
323 322 321 319 316 313 309 306 302 297 292 287 282 277 274 272 270 269 268 267 265 262 260 260 261 262 260 256 249 241 236 234 232 232 232 233 234 235 236 238 240 242 245
327 326 325 323 320 317 314 310 305 299 293 288 282 276 271 268 267 265 265 264 262 259 258 257 258 260 259 258 254 246 236 231 228 227 227 229 231 232 233 236 237 238 240
331 330 330 327 324 322 319 315 312 307 300 292 285 277 271 266 264 262 261 261 259 257 255 254 253 253 253 254 254 250 238 228 224 223 223 225 228 229 232 233 234 235 237
335 335 334 332 330 328 327 324 319 314 309 300 290 281 273 266 263 260 257 256 254 253 251 249 248 247 246 246 248 248 240 226 218 216 217 219 224 226 229 230 230 231 233
338 339 338 337 335 334 333 331 327 323 318 310 299 287 277 268 262 258 255 252 250 248 247 244 241 239 238 238 240 243 240 225 214 210 208 210 215 220 224 225 226 228 230
341 342 342 341 340 339 338 338 335 332 328 321 311 299 283 270 262 257 253 250 247 244 242 238 233 231 231 231 233 235 234 225 212 204 200 203 208 213 218 220 221 224 226
344 346 346 346 345 345 345 344 343 341 337 332 323 314 298 278 264 255 250 245 241 239 235 231 227 226 225 226 227 228 228 223 210 201 194 196 201 208 213 216 217 219 220
346 349 351 351 351 350 350 351 351 350 347 344 337 327 314 291 269 254 245 237 233 231 227 225 223 221 220 220 221 223 222 219 211 202 194 192 195 201 208 212 213 214 216
350 352 354 356 356 355 356 357 359 359 358 354 348 340 329 309 280 251 235 227 224 222 219 217 217 216 215 216 217 218 219 218 213 203 196 192 193 198 203 208 211 212 212
Height
5861 5858 5854 5850 5845 5838 5831 5825 5819 5813 5810 5810 5812 5814 5816 5817 5818 5818 5817 5817 5816 5816 5816 5816 5816 5816 5816 5816 5817 5817 5817 5818 5819 5820 5821 5820 5820 5819 5817 5816 5815 5815 5814
5857 5854 5850 5845 5841 5836 5828 5822 5816 5813 5811 5810 5810 5811 5810 5811 5812 5813 5812 5811 5810 5810 5811 5811 5811 5811 5811 5812 5812 5812 5813 5814 5815 5816 5817 5816 5816 5815 5814 5812 5811 5810 5809
5851 5848 5844 5840 5836 5832 5827 5822 5816 5813 5810 5808 5806 5805 5804 5805 5806 5806 5805 5804 5804 5804 5804 5805 5805 5805 5806 5806 5807 5807 5808 5808 5810 5811 5812 5812 5811 5810 5809 5808 5806 5805 5803
5844 5842 5839 5835 5831 5826 5821 5817 5813 5809 5806 5803 5802 5801 5800 5799 5799 5799 5799 5798 5798 5797 5798 5798 5798 5799 5799 5800 5801 5801 5802 5802 5804 5805 5806 5807 5807 5806 5804 5803 5802 5799 5797
5836 5834 5832 5828 5824 5819 5814 5810 5807 5804 5801 5798 5797 5796 5794 5793 5793 5792 5792 5792 5791 5791 5791 5791 5791 5791 5792 5793 5794 5794 5795 5796 5797 5798 5800 5801 5801 5801 5801 5798 5795 5794 5792
5828 5826 5823 5819 5815 5810 5806 5802 5799 5796 5794 5792 5790 5789 5788 5787 5786 5784 5784 5784 5784 5784 5784 5784 5783 5783 5784 5784 5785 5786 5787 5789 5790 5791 5792 5793 5794 5794 5795 5794 5791 5788 5786
5821 5817 5813 5809 5804 5800 5796 5792 5789 5787 5784 5782 5780 5779 5778 5777 5776 5775 5774 5774 5774 5774 5775 5775 5775 5775 5775 5776 5776 5777 5778 5780 5781 5783 5784 5785 5786 5787 5787 5787 5786 5783 5780
5812 5807 5803 5798 5794 5790 5786 5782 5779 5775 5772 5769 5767 5765 5764 5763 5762 5762 5761 5761 5761 5762 5763 5764 5765 5766 5766 5766 5767 5768 5769 5770 5772 5774 5776 5777 5778 5779 5779 5780 5779 5778 5775
5801 5794 5788 5782 5777 5774 5770 5767 5764 5761 5758 5754 5751 5749 5747 5746 5746 5745 5745 5746 5746 5747 5748 5749 5751 5753 5754 5756 5757 5757 5759 5760 5762 5764 5766 5768 5769 5770 5771 5772 5772 5772 5769
5791 5783 5776 5769 5763 5756 5751 5746 5744 5742 5739 5736 5733 5729 5727 5725 5724 5725 5726 5727 5728 5730 5731 5733 5735 5737 5740 5742 5744 5746 5747 5749 5752 5754 5756 5758 5760 5762 5763 5763 5764 5764 5763
5782 5775 5767 5759 5750 5741 5732 5725 5720 5716 5713 5711 5709 5706 5704 5702 5702 5702 5703 5705 5707 5710 5712 5714 5716 5719 5723 5726 5729 5733 5735 5738 5740 5743 5746 5749 5751 5753 5754 5755 5756 5756 5756
5770 5762 5754 5745 5736 5727 5717 5707 5698 5691 5686 5682 5679 5677 5675 5674 5674 5676 5677 5680 5683 5686 5689 5693 5696 5699 5703 5708 5712 5717 5721 5724 5728 5732 5735 5739 5741 5744 5745 5747 5747 5748 5748
5757 5748 5739 5730 5720 5711 5701 5691 5682 5673 5665 5659 5654 5651 5648 5646 5646 5647 5649 5652 5656 5660 5664 5669 5673 5678 5682 5687 5693 5699 5704 5709 5714 5719 5723 5727 5731 5734 5736 5738 5739 5740 5741
5745 5736 5726 5716 5706 5697 5687 5678 5669 5660 5652 5645 5639 5634 5629 5626 5624 5624 5624 5626 5630 5633 5638 5643 5648 5654 5659 5665 5672 5679 5686 5693 5699 5704 5710 5715 5720 5724 5727 5729 5731 5733 5734
5734 5723 5713 5702 5692 5683 5674 5665 5656 5648 5640 5633 5627 5621 5617 5614 5611 5610 5609 5609 5610 5611 5614 5618 5623 5628 5635 5642 5650 5658 5667 5675 5682 5689 5696 5702 5707 5712 5717 5720 5722 5725 5727
5720 5709 5698 5688 5678 5669 5660 5651 5642 5634 5626 5619 5613 5608 5604 5601 5599 5597 5596 5596 5596 5596 5597 5599 5602 5605 5611 5618 5626 5635 5646 5656 5665 5673 5681 5688 5694 5701 5706 5710 5713 5717 5719
5705 5694 5684 5674 5664 5654 5644 5634 5624 5615 5607 5601 5596 5591 5588 5585 5584 5583 5582 5582 5583 5583 5584 5585 5587 5588 5591 5596 5602 5611 5623 5635 5646 5656 5665 5674 5681 5688 5694 5699 5704 5708 5711
5693 5682 5671 5661 5649 5637 5625 5614 5604 5594 5585 5579 5574 5570 5568 5566 5566 5566 5566 5567 5568 5570 5571 5573 5574 5576 5578 5579 5583 5589 5600 5613 5626 5638 5649 5659 5667 5675 5682 5689 5694 5699 5703
5681 5670 5658 5645 5632 5619 5605 5592 5581 5570 5561 5555 5550 5547 5545 5545 5546 5547 5549 5551 5553 5555 5557 5560 5562 5564 5566 5568 5570 5573 5580 5592 5606 5620 5633 5644 5653 5662 5670 5678 5684 5690 5695
5671 5659 5646 5632 5617 5602 5586 5572 5559 5546 5537 5530 5526 5524 5523 5524 5525 5528 5531 5534 5537 5540 5543 5546 5549 5553 5555 5558 5560 5562 5566 5575 5588 5602 5617 5629 5639 5649 5658 5666 5673 5680 5686
5662 5649 5635 5619 5603 5587 5570 5555 5541 5528 5518 5510 5505 5502 5502 5502 5505 5509 5513 5517 5521 5525 5529 5533 5537 5541 5545 5548 5551 5554 5556 5561 5572 5586 5601 5615 5626 5637 5646 5655 5663 5670 5677
5653 5640 5625 5609 5592 5574 5557 5542 5528 5515 5503 5494 5488 5484 5483 5483 5486 5490 5495 5500 5505 5510 5515 5520 5525 5530 5535 5539 5543 5546 5549 5553 5562 5574 5588 5602 5614 5625 5634 5643 5652 5661 5669
5646 5631 5616 5600 5583 5565 5548 5532 5518 5505 5493 5483 5476 5471 5468 5468 5471 5475 5480 5485 5491 5496 5502 5508 5514 5519 5525 5530 5535 5539 5543 5547 5554 5565 5578 5591 5603 5614 5623 5633 5642 5651 5660
5639 5625 5609 5593 5576 5559 5542 5526 5511 5498 5486 5476 5468 5463 5459 5458 5459 5462 5467 5473 5478 5484 5490 5497 5503 5509 5516 5522 5528 5533 5537 5542 5548 5557 5568 5581 5593 5604 5613 5623 5633 5643 5651
5633 5619 5603 5587 5570 5553 5537 5522 5507 5494 5482 5471 5463 5457 5454 5452 5452 5454 5458 5463 5468 5474 5480 5487 5494 5501 5508 5514 5520 5526 5531 5536 5542 5549 5560 5572 5584 5594 5604 5615 5625 5634 5644
5629 5615 5600 5584 5567 5550 5535 5520 5506 5493 5481 5470 5461 5454 5450 5448 5448 5449 5452 5456 5461 5467 5473 5479 5486 5493 5500 5507 5514 5520 5525 5531 5536 5544 5553 5564 5576 5587 5597 5607 5618 5627 5636